Current Version              Previous Version:    01  02  03  04  05  06  07  08  09  10  11  12  13  14  15  16  17  18  19  20  21  22  23  24  25  26  27  28  29  30  
   31  32  33  34  35  36  37  38  39  40  41  42  43  44  45  46  47  48  49  50  51  52  53  54  55  56  57  58  59  60  

[Printable]
814
ASUS44 KFWD 160301
RWRTX
NORTH TEXAS HOURLY WEATHER ROUNDUP
NATIONAL WEATHER SERVICE FORT WORTH TX
1000 PM CDT TUE APR 15 2014

NOTE: "FAIR" INDICATES FEW OR NO CLOUDS BELOW 12,000 FEET WITH NO
SIGNIFICANT WEATHER AND/OR OBSTRUCTIONS TO VISIBILITY.

TXZ118-119-160400-
DALLAS/FORT WORTH METROPLEX

CITY           SKY/WX    TMP DP  RH WIND       PRES   REMARKS
DFW AIRPORT    CLEAR     51  29  42 SE8       30.13R
DALLAS LOVE    CLEAR     56  26  31 SE12      30.15R
FTW MEACHAM    CLEAR     53  27  36 SE10      30.12R
DAL-EXECUTIVE  CLEAR     52  30  43 S6        30.14R
FTW-ALLIANCE   CLEAR     49  27  42 S6        30.12R
FTW-NAS-JRB    CLEAR     57  23  26 SE6       30.17R
ARLINGTON      CLEAR     50  31  48 SE7       30.14R
MESQUITE       CLEAR     49  32  53 SE6       30.17
$$

TXZ091>094-102>105-117-120-121-131>134-160400-
NORTH CENTRAL TEXAS

CITY           SKY/WX    TMP DP  RH WIND       PRES   REMARKS
DENTON         CLEAR     50  26  39 SE8       30.12R
MCKINNEY       CLEAR     47  31  53 SE5       30.15R
ROCKWALL       CLEAR     49  30  47 E6        30.15R
TERRELL        CLEAR     50  29  44 SE6       30.17R
$$

TXZ083>090-098>101-113>116-127>130-139>142-154-155-160400-
WESTERN NORTH TEXAS

CITY           SKY/WX    TMP DP  RH WIND       PRES   REMARKS
WICHITA FALLS  CLEAR     49  19  30 SE10      30.05S
ABILENE        CLEAR     52  15  23 SE12      30.05S
ABILENE-DYESS  CLEAR     55  16  21 SE9       30.04S
BRECKENRIDGE   CLEAR     55  18  23 SE9       30.07F
MINERAL WELLS  CLEAR     51  24  34 SE8       30.09R
BROWNWOOD      PTCLDY    54  25  32 SE9       30.11R
$$

TXZ143>147-156>162-174-175-160400-
CENTRAL TEXAS

CITY           SKY/WX    TMP DP  RH WIND       PRES   REMARKS
WACO           CLEAR     47  34  60 SE7       30.16R
WACO-MCGREGOR  CLEAR     45  30  57 S6        30.17S
CORSICANA      CLEAR     51  32  48 SE6       30.18R
MEXIA          CLEAR     50  32  49 CALM      30.17R
TEMPLE         CLEAR     46  28  49 SE7         N/A
KILLEEN        CLEAR     52  28  40 SE12      30.15R
KILLEEN-SKYLRK CLEAR     52  30  43 SE8       30.15R
LAMPASAS       CLEAR     50  31  47 E3        30.13R
$$

TXZ095>097-106>112-122>126-135>138-148>153-164>167-160400-
EAST TEXAS

CITY           SKY/WX    TMP DP  RH WIND       PRES   REMARKS
PARIS          CLEAR     46  32  57 S8        30.17R
TYLER          CLEAR     45  36  70 SE5       30.18R
LONGVIEW       CLEAR     44  37  76 S3        30.19R
ATHENS         CLEAR     43  36  75 CALM      30.17R
NACOGDOCHES    CLEAR     41  32  70 CALM      30.20R
LUFKIN         CLEAR     47  39  74 CALM      30.19R
$$

SUPPLEMENTAL OBSERVATIONS (CENTRAL)

CITY           SKY/WX    TMP DP  RH WIND       PRES   REMARKS
$$

SUPPLEMENTAL OBSERVATIONS (WEST)

CITY           SKY/WX    TMP DP  RH WIND       PRES   REMARKS
$$

SUPPLEMENTAL OBSERVATIONS (EAST)

CITY           SKY/WX    TMP DP  RH WIND       PRES   REMARKS
$$

SUPPLEMENTAL OBSERVATIONS ARE A COLLECTION OF AUTOMATED INSTRUMENTS
THAT ARE MAINTAINED BY A VARIETY OF FEDERAL AND STATE AGENCIES.
CERTAIN ELEMENTS...SUCH AS HUMIDITY VALUES AND SUSTAINED WIND
SPEEDS...MAY BE APPROXIMATED.